Location: Riverside Cemetery
(38.3047°N, 99.7773°W)
Time: 19:27:17
(UTC+00:00)

Cosmos 2278 - Pass Details

Date: 19 September 2020
Orbit: 841 x 852 km, 71.1° (Epoch: 22 October)

Event Time Altitude Azimuth Distance (km) Brightness Sun altitude
Exits shadow 10:16:02 57° 298° (WNW) 1,000 3.8 -25.3°
Drops below altitude 10° 10:21:36 10° 14° (NNE) 2,485 6.6 -24.3°
Sets 10:24:06 0° 19° (NNE) 3,423 7.4 -23.9°
